This demonstration page uses our WeatherBlox Daily Observations layout. Learn more.

Left ArrowRight Arrow

Hourly Observations for May 5, 2021

Temp ( °F °C ) Dew Point ( °F °C ) Humidity (%) Winds ( mph kmh ) Pressure ( in mb ) Visibility ( mi km ) Precip ( " mm )
12:15 am 00:15 Cloudy 59 15 59 15 100 100 SSW 3 6 29.75 1007 7 11 0.00 0.00
12:35 am 00:35 Cloudy 57 14 57 14 100 100 Calm 29.75 1007 7 11 0.00 0.00
12:55 am 00:55 Cloudy 57 14 57 14 100 100 Calm 29.74 1007 7 11 0.00 0.00
1:15 am 01:15 Cloudy 57 14 57 14 100 100 Calm 29.73 1007 7 11 0.00 0.00
1:35 am 01:35 Cloudy with Mist and Fog 55 13 55 13 100 100 Calm 29.73 1007 1 1 0.00 0.00
1:55 am 01:55 Cloudy with Fog 55 13 55 13 100 100 Calm 29.72 1006 1 1 0.00 0.00
2:15 am 02:15 Cloudy with Fog 55 13 55 13 100 100 SSE 3 6 29.72 1006 0 0 0.00 0.00
2:35 am 02:35 Cloudy with Mist and Fog 55 13 55 13 100 100 Calm 29.71 1006 1 1 0.00 0.00
2:55 am 02:55 Cloudy with Mist and Fog 55 13 55 13 100 100 Calm 29.71 1006 1 1 0.00 0.00
3:15 am 03:15 Cloudy with Mist and Fog 55 13 55 13 100 100 S 3 6 29.70 1006 1 1 0.00 0.00
3:35 am 03:35 Cloudy with Mist and Fog 55 13 55 13 100 100 Calm 29.70 1006 1 2 0.00 0.00
3:55 am 03:55 Cloudy with Fog 55 13 55 13 100 100 Calm 29.70 1006 1 1 0.00 0.00
4:15 am 04:15 Cloudy with Fog 55 13 55 13 100 100 Calm 29.69 1005 1 1 0.00 0.00
4:35 am 04:35 Cloudy with Fog 54 12 54 12 100 100 Calm 29.70 1006 1 1 0.00 0.00
4:55 am 04:55 Cloudy with Fog 54 12 54 12 100 100 Calm 29.70 1006 1 1 0.00 0.00
5:15 am 05:15 Cloudy with Mist and Fog 54 12 54 12 100 100 Calm 29.70 1006 1 2 0.00 0.00
5:35 am 05:35 Cloudy with Light Rain 54 12 54 12 100 100 Calm 29.69 1006 1 2 0.00 0.00
5:55 am 05:55 Cloudy with Mist and Fog 54 12 54 12 100 100 Calm 29.69 1006 2 3 0.00 0.00
6:15 am 06:15 Cloudy 54 12 54 12 100 100 Calm 29.70 1006 7 11 0.00 0.00
6:35 am 06:35 Cloudy with Light Rain 54 12 54 12 100 100 Calm 29.71 1006 3 5 0.00 0.00
6:55 am 06:55 Cloudy with Rain 54 12 54 12 100 100 Calm 29.72 1007 1 1 0.08 2.03
7:15 am 07:15 Cloudy with Light Rain 55 13 55 13 100 100 Calm 29.72 1006 7 11 0.00 0.00
7:35 am 07:35 Cloudy with Light Rain 55 13 55 13 100 100 Calm 29.72 1006 7 11 0.01 0.25
7:55 am 07:55 Cloudy with Light Rain 55 13 55 13 100 100 Calm 29.73 1007 5 8 0.01 0.25
8:15 am 08:15 Cloudy with Light Rain 55 13 55 13 100 100 Calm 29.73 1007 4 6 0.01 0.25
8:35 am 08:35 Cloudy with Rain 55 13 55 13 100 100 ESE 5 7 29.72 1006 2 3 0.10 2.54
8:55 am 08:55 Cloudy with Light Rain 55 13 55 13 100 100 Calm 29.73 1007 10 16 0.11 2.79
9:15 am 09:15 Cloudy with Light Rain 55 13 55 13 100 100 Calm 29.72 1006 10 16 0.00 0.00
9:35 am 09:35 Cloudy with Light Rain 55 13 55 13 100 100 SE 3 6 29.71 1006 10 16 0.00 0.00
9:55 am 09:55 Mostly Cloudy 57 14 57 14 100 100 Calm 29.71 1006 10 16 0.00 0.00
10:15 am 10:15 Mostly Cloudy 57 14 57 14 100 100 Calm 29.71 1006 10 16 0.00 0.00
10:35 am 10:35 Mostly Cloudy 59 15 59 15 100 100 W 5 7 29.72 1006 10 16 0.00 0.00
10:55 am 10:55 Partly Cloudy 61 16 59 15 94 94 W 3 6 29.72 1006 10 16 0.00 0.00
11:15 am 11:15 Partly Cloudy 61 16 57 14 88 88 WNW 7 11 29.72 1006 10 16 0.00 0.00
11:35 am 11:35 Mostly Cloudy 64 18 59 15 83 83 WNW 8 13 29.71 1006 10 16 0.00 0.00
11:55 am 11:55 Mostly Cloudy 64 18 55 13 73 73 NW 6 9 29.71 1006 10 16 0.00 0.00
12:15 pm 12:15 Cloudy with Light Rain 61 16 57 14 88 88 WSW 6 9 29.73 1007 5 8 0.00 0.00
12:35 pm 12:35 Cloudy 63 17 59 15 88 88 Calm 29.72 1006 10 16 0.00 0.00
12:55 pm 12:55 Cloudy 64 18 59 15 83 83 NW 6 9 29.70 1006 10 16 0.00 0.00
1:15 pm 13:15 Cloudy with Light Rain 64 18 57 14 78 78 N 6 9 29.70 1006 10 16 0.00 0.00
1:35 pm 13:35 Cloudy with Light Rain 63 17 59 15 88 88 WNW 8 13 29.72 1006 10 16 0.00 0.00
1:55 pm 13:55 Cloudy with Rain 63 17 57 14 83 83 WNW 9 15 29.73 1007 7 11 0.00 0.00
2:15 pm 14:15 Cloudy with Light Rain 63 17 59 15 88 88 W 6 9 29.74 1007 10 16 0.00 0.00
2:35 pm 14:35 Cloudy with Light Rain 63 17 59 15 88 88 NW 14 22 29.75 1007 5 8 0.00 0.00
2:55 pm 14:55 Mostly Cloudy 64 18 59 15 83 83 NW 20 31 29.73 1007 10 16 0.00 0.00
3:15 pm 15:15 Mostly Cloudy 66 19 54 12 64 64 NW 22 35 29.74 1007 10 16 0.00 0.00
3:35 pm 15:35 Mostly Cloudy 68 20 54 12 60 60 NW 21 33 29.74 1007 10 16 0.01 0.25
3:55 pm 15:55 Partly Cloudy 68 20 54 12 60 60 NW 18 30 29.75 1008 10 16 0.01 0.25
4:15 pm 16:15 Partly Cloudy 68 20 54 12 60 60 NW 24 39 29.76 1008 10 16 0.00 0.00
4:35 pm 16:35 Mostly Cloudy 64 18 52 11 64 64 NNW 20 31 29.77 1008 10 16 0.00 0.00
4:55 pm 16:55 Cloudy 64 18 52 11 64 64 NW 21 33 29.79 1009 10 16 0.00 0.00
5:15 pm 17:15 Cloudy 63 17 50 10 64 64 NNW 23 37 29.83 1010 10 16 0.00 0.00
5:35 pm 17:35 Cloudy 63 17 50 10 64 64 WNW 22 35 29.84 1010 10 16 0.00 0.00
5:55 pm 17:55 Mostly Cloudy 63 17 48 9 59 59 NW 15 24 29.85 1011 10 16 0.00 0.00
6:15 pm 18:15 Mostly Cloudy 61 16 48 9 63 63 NW 21 33 29.86 1011 10 16 0.00 0.00
6:35 pm 18:35 Mostly Cloudy 63 17 48 9 59 59 WNW 24 39 29.88 1012 10 16 0.00 0.00
6:55 pm 18:55 Cloudy 61 16 46 8 59 59 NW 16 26 29.89 1012 10 16 0.00 0.00
7:15 pm 19:15 Mostly Cloudy 59 15 45 7 59 59 NW 10 17 29.91 1013 10 16 0.00 0.00
7:35 pm 19:35 Cloudy 59 15 45 7 59 59 NNW 13 20 29.91 1013 10 16 0.00 0.00
7:55 pm 19:55 Cloudy 57 14 45 7 63 63 NNW 10 17 29.92 1013 10 16 0.00 0.00
8:15 pm 20:15 Cloudy 57 14 45 7 63 63 N 6 9 29.93 1014 10 16 0.00 0.00
8:35 pm 20:35 Cloudy 57 14 45 7 63 63 NNW 7 11 29.94 1014 10 16 0.00 0.00
8:55 pm 20:55 Mostly Cloudy 55 13 45 7 67 67 NNW 6 9 29.95 1014 10 16 0.00 0.00
9:15 pm 21:15 Mostly Cloudy 55 13 45 7 67 67 NE 6 9 29.95 1014 10 16 0.00 0.00
9:35 pm 21:35 Mostly Cloudy 55 13 43 6 63 63 Calm 29.96 1015 10 16 0.00 0.00
9:55 pm 21:55 Partly Cloudy 54 12 43 6 67 67 NNE 5 7 29.97 1015 10 16 0.00 0.00
10:15 pm 22:15 Partly Cloudy 54 12 43 6 67 67 N 3 6 29.98 1015 10 16 0.00 0.00
10:35 pm 22:35 Clear 54 12 43 6 67 67 N 7 11 29.98 1015 10 16 0.00 0.00
10:55 pm 22:55 Clear 54 12 43 6 67 67 N 5 7 30.00 1016 10 16 0.00 0.00
11:15 pm 23:15 Partly Cloudy 54 12 43 6 67 67 N 9 15 30.00 1016 10 16 0.00 0.00
11:35 pm 23:35 Partly Cloudy 54 12 41 5 63 63 N 15 24 30.00 1016 10 16 0.00 0.00
11:55 pm 23:55 Partly Cloudy 54 12 41 5 63 63 NNW 13 20 30.00 1016 10 16 0.00 0.00

Powered by AerisWeather